Santiago de Cuba, Cuba

11:27 PM CDT on September 21, 2018 (GMT -0400)
Antonio Maceo International

Weather History for MUCU - September, 2018

Change the Weather History Date:

Friday, September 14, 2018

  Actual Average Record
Temperature  
Mean Temperature 83 °F -  
Max Temperature 91 °F 85 °F 91 °F (2018)
Min Temperature 75 °F 73 °F 73 °F (1998)
Cooling Degree Days 18    
Growing Degree Days 33 (Base 50)    
Moisture  
Dew Point 70 °F    
Average Humidity 67    
Maximum Humidity 89    
Minimum Humidity 47    
Precipitation  
Precipitation 0.00 in - - ()
Sea Level Pressure  
Sea Level Pressure 29.90 in    
Wind  
Wind Speed 6 mph ()    
Max Wind Speed 12 mph    
Max Gust Speed -    
Visibility 5.6 miles    
Events      
Averages and records for this station are not official NWS values.
T = Trace of Precipitation, MM = Missing Value Source: Averaged Metar Reports

Daily Weather History Graph

Daily Weather History Graph

Search for Another Location

Airport or City:

Astronomy

Sep. 14, 2018 Rise Set
Actual Time 6:50 AM CDT 7:06 PM CDT
Civil Twilight 6:28 AM CDT 7:29 PM CDT
Nautical Twilight 6:02 AM CDT 7:54 PM CDT
Astronomical Twilight 5:36 AM CDT 8:20 PM CDT
Moon 11:27 AM CDT (9/14) 11:03 PM CDT (9/14)
Length of Visible Light 13h 00m
Length of Day
12h 16m
Waxing Crescent, 28% of the Moon is Illuminated
Sep 14
Waxing Crescent
Sep 16
First Quarter
Sep 24
Full
Oct 2
Last Quarter
Oct 8
New

Hourly Weather History & Observations

Time (CDT) Temp. Heat Index Dew Point Humidity Pressure Visibility Wind Dir Wind Speed Gust Speed Precip Events Conditions
12:51 AM 77.0 °F - 71.6 °F 83% 29.95 in 5.0 mi ENE 5.8 mph - N/A   Partly Cloudy
1:50 AM 77.0 °F - 71.6 °F 83% 29.92 in 5.0 mi NE 4.6 mph - N/A   Partly Cloudy
2:00 AM 76 °F - 71 °F 80% 29.94 in 6 mi NE 4.5 mph - -   Haze
2:50 AM 77.0 °F - 71.6 °F 83% 29.92 in 5.0 mi North 5.8 mph - N/A   Partly Cloudy
3:50 AM 75.2 °F - 71.6 °F 89% 29.89 in 5.0 mi North 8.1 mph - N/A   Partly Cloudy
4:50 AM 75.2 °F - 71.6 °F 89% 29.92 in 5.0 mi North 6.9 mph - N/A   Partly Cloudy
5:00 AM 76 °F - 71 °F 80% 29.92 in 6 mi North 6.7 mph - -   Haze
5:51 AM 75.2 °F - 69.8 °F 83% 29.92 in 5.6 mi North 6.9 mph - N/A   Partly Cloudy
6:52 AM 75.2 °F - 69.8 °F 83% 29.92 in 5.6 mi North 5.8 mph - N/A   Partly Cloudy
7:50 AM 78.8 °F - 69.8 °F 74% 29.95 in 5.6 mi North 6.9 mph - N/A   Partly Cloudy
8:00 AM 78 °F - 71 °F 72% 29.95 in 6 mi North 6.7 mph - -   Haze
8:52 AM 82.4 °F 87.2 °F 71.6 °F 70% 29.95 in 5.6 mi North 9.2 mph - N/A   Partly Cloudy
9:54 AM 87.8 °F 92.6 °F 69.8 °F 55% 29.95 in 5.6 mi North 6.9 mph - N/A   Partly Cloudy
10:51 AM 91.4 °F 96.8 °F 69.8 °F 49% 29.95 in 5.6 mi North 5.8 mph - N/A   Partly Cloudy
11:52 AM 87.8 °F 93.8 °F 71.6 °F 58% 29.92 in 5.6 mi WSW 11.5 mph - N/A   Scattered Clouds
12:51 PM 87.8 °F 93.8 °F 71.6 °F 58% 29.92 in 5.6 mi WSW 9.2 mph - N/A   Scattered Clouds
1:51 PM 89.6 °F 96.2 °F 71.6 °F 55% 29.89 in 5.6 mi SW 9.2 mph - N/A   Scattered Clouds
2:00 PM 88 °F - 70 °F 47% 29.90 in 6 mi SW 8.9 mph - -   Haze
2:50 PM 87.8 °F 92.6 °F 69.8 °F 55% 29.86 in 5.6 mi SSW 8.1 mph - N/A   Scattered Clouds
3:51 PM 87.8 °F 93.8 °F 71.6 °F 58% 29.86 in 5.6 mi South 5.8 mph - N/A   Scattered Clouds
4:51 PM 87.8 °F 92.6 °F 69.8 °F 55% 29.86 in 5.6 mi South 5.8 mph - N/A   Scattered Clouds
5:00 PM 88 °F - 71 °F 47% 29.86 in 6 mi South 6.7 mph - -   Haze
5:53 PM 86.0 °F 91.8 °F 71.6 °F 62% 29.83 in 5.6 mi SSW 4.6 mph - N/A   Scattered Clouds
6:51 PM 86.0 °F 91.8 °F 71.6 °F 62% 29.86 in 5.6 mi SW 3.5 mph - N/A   Scattered Clouds
7:51 PM 84.2 °F 89.6 °F 71.6 °F 66% 29.86 in 5.6 mi Variable 2.3 mph - N/A   Scattered Clouds
8:50 PM 82.4 °F 86.3 °F 69.8 °F 66% 29.89 in 5.6 mi NE 3.5 mph - N/A   Partly Cloudy
9:50 PM 80.6 °F 83.2 °F 68.0 °F 65% 29.89 in 5.6 mi North 6.9 mph - N/A   Partly Cloudy
10:50 PM 80.6 °F 83.2 °F 68.0 °F 65% 29.89 in 5.6 mi North 6.9 mph - N/A   Partly Cloudy
11:00 PM 80 °F - 67 °F 57% 29.89 in 6 mi North 6.7 mph - -   Haze
11:50 PM 78.8 °F - 66.2 °F 65% 29.89 in 5.6 mi North 5.8 mph - N/A   Partly Cloudy